Location: Buisson
(44.2787°N, 4.9969°E)
Time: 03:03:17
(UTC+00:00)

SJ 16-02 - Pass Details

Date: 18 April 2021
Orbit: 605 x 617 km, 75.0° (Epoch: 15 May)

Event Time Altitude Azimuth Distance (km) Brightness Sun altitude
Exits shadow 01:18:20 32° 58° (ENE) 1,061 2.9 -30.5°
Drops below altitude 10° 01:21:05 10° 32° (NNE) 1,984 4.9 -30.2°
Sets 01:23:25 0° 26° (NNE) 2,896 6.0 -30.0°
